• In Hungary
  • List of Countries
  • For 7 days
  • Water Temperature
  • Satellite Maps
  • Weather Map
  • News
  • Weather Widgets
  • user-avatar
    Login

    Hourly Weather Maskat

    Today, 16 January, Tuesday

    Time Temperature Precipitation Wind Pressure Humidity
    00:00 +22°C° 0 mm 1 mps 755 mmHg 46%
    01:00 +22°C° 0 mm 1 mps 755 mmHg 45%
    02:00 +22°C° 0 mm 1 mps 755 mmHg 44%
    03:00 +21°C° 0 mm 1 mps 755 mmHg 43%
    04:00 +19°C° 0 mm 0 mps 754 mmHg 44%
    05:00 +18°C° 0 mm 0 mps 755 mmHg 44%
    06:00 +20°C° 0 mm 1 mps 755 mmHg 45%
    07:00 +19°C° 0 mm 1 mps 755 mmHg 46%
    08:00 +22°C° 0 mm 1 mps 755 mmHg 41%
    09:00 +24°C° 0 mm 2 mps 756 mmHg 36%
    10:00 +27°C° 0 mm 2 mps 756 mmHg 30%
    11:00 +27°C° 0 mm 2 mps 756 mmHg 31%
    12:00 +28°C° 0 mm 3 mps 755 mmHg 32%
    13:00 +28°C° 0 mm 4 mps 754 mmHg 33%
    14:00 +28°C° 0 mm 4 mps 754 mmHg 33%
    15:00 +28°C° 0 mm 4 mps 754 mmHg 34%
    16:00 +28°C° 0 mm 3 mps 753 mmHg 34%
    17:00 +27°C° 0 mm 3 mps 753 mmHg 38%
    18:00 +26°C° 0 mm 2 mps 753 mmHg 41%
    19:00 +25°C° 0 mm 1 mps 753 mmHg 45%
    20:00 +24°C° 0 mm 2 mps 754 mmHg 44%
    21:00 +24°C° 0 mm 2 mps 754 mmHg 44%
    22:00 +23°C° 0 mm 2 mps 754 mmHg 43%
    23:00 +23°C° 0 mm 2 mps 754 mmHg 43%

    Tomorrow, 17 January, Wednesday

    Time Temperature Precipitation Wind Pressure Humidity
    00:00 +21°C° 0 mm 2 mps 754 mmHg 43%
    01:00 +21°C° 0 mm 3 mps 753 mmHg 43%
    02:00 +21°C° 0 mm 3 mps 753 mmHg 48%
    03:00 +20°C° 0 mm 3 mps 753 mmHg 52%
    04:00 +20°C° 0 mm 4 mps 753 mmHg 57%
    05:00 +19°C° 0 mm 4 mps 753 mmHg 60%
    06:00 +19°C° 0 mm 4 mps 754 mmHg 64%
    07:00 +19°C° 0 mm 3 mps 754 mmHg 68%
    08:00 +20°C° 0 mm 3 mps 754 mmHg 62%
    09:00 +22°C° 0 mm 3 mps 755 mmHg 56%
    10:00 +25°C° 0 mm 3 mps 755 mmHg 50%
    11:00 +25°C° 0 mm 3 mps 754 mmHg 46%
    12:00 +26°C° 0 mm 3 mps 754 mmHg 42%
    13:00 +27°C° 0 mm 3 mps 753 mmHg 39%
    14:00 +27°C° 0 mm 3 mps 753 mmHg 41%
    15:00 +27°C° 0 mm 3 mps 753 mmHg 44%
    16:00 +26°C° 0 mm 3 mps 753 mmHg 46%
    17:00 +25°C° 0 mm 3 mps 753 mmHg 51%
    18:00 +24°C° 0 mm 2 mps 753 mmHg 55%
    19:00 +24°C° 0 mm 1 mps 754 mmHg 60%
    20:00 +23°C° 0 mm 1 mps 754 mmHg 62%
    21:00 +23°C° 0 mm 1 mps 754 mmHg 65%
    22:00 +22°C° 0 mm 1 mps 754 mmHg 67%
    23:00 +22°C° 0 mm 1 mps 754 mmHg 69%

    Day after tomorrow, 18 January, Thursday

    Time Temperature Precipitation Wind Pressure Humidity
    00:00 +21°C° 0 mm 2 mps 754 mmHg 70%
    01:00 +21°C° 0 mm 2 mps 754 mmHg 71%
    02:00 +20°C° 0 mm 2 mps 754 mmHg 71%
    03:00 +20°C° 0 mm 2 mps 754 mmHg 72%
    04:00 +21°C° 0 mm 1 mps 754 mmHg 73%
    05:00 +20°C° 0 mm 1 mps 754 mmHg 74%
    06:00 +20°C° 0 mm 1 mps 755 mmHg 75%
    07:00 +20°C° 0 mm 1 mps 755 mmHg 76%
    08:00 +21°C° 0 mm 1 mps 755 mmHg 68%
    09:00 +23°C° 0 mm 1 mps 756 mmHg 61%
    10:00 +25°C° 0 mm 1 mps 756 mmHg 53%
    11:00 +25°C° 0 mm 1 mps 756 mmHg 50%
    12:00 +26°C° 0 mm 2 mps 755 mmHg 47%
    13:00 +27°C° 0 mm 2 mps 755 mmHg 43%
    14:00 +27°C° 0 mm 2 mps 754 mmHg 47%
    15:00 +26°C° 0 mm 3 mps 754 mmHg 51%
    16:00 +26°C° 0 mm 3 mps 754 mmHg 54%
    17:00 +25°C° 0 mm 2 mps 754 mmHg 59%
    18:00 +24°C° 0 mm 2 mps 755 mmHg 64%
    19:00 +23°C° 0 mm 1 mps 755 mmHg 69%
    20:00 +23°C° 0 mm 1 mps 755 mmHg 71%
    21:00 +23°C° 0 mm 1 mps 756 mmHg 74%
    22:00 +22°C° 0 mm 1 mps 756 mmHg 76%
    23:00 +22°C° 0 mm 1 mps 756 mmHg 78%

    19 January, Friday

    Time Temperature Precipitation Wind Pressure Humidity
    00:00 +20°C° 0 mm 0 mps 756 mmHg 80%
    01:00 +19°C° 0 mm 0 mps 755 mmHg 82%
    02:00 +19°C° 0 mm 0 mps 755 mmHg 84%
    03:00 +19°C° 0 mm 0 mps 755 mmHg 85%
    04:00 +18°C° 0 mm 0 mps 755 mmHg 87%
    05:00 +18°C° 0 mm 0 mps 756 mmHg 88%
    06:00 +18°C° 0 mm 0 mps 756 mmHg 89%
    07:00 +17°C° 0 mm 0 mps 757 mmHg 90%
    08:00 +21°C° 0 mm 1 mps 757 mmHg 80%
    09:00 +23°C° 0 mm 1 mps 757 mmHg 70%
    10:00 +24°C° 0 mm 1 mps 758 mmHg 60%
    11:00 +25°C° 0 mm 1 mps 757 mmHg 55%
    12:00 +26°C° 0 mm 2 mps 757 mmHg 51%
    13:00 +27°C° 0 mm 2 mps 756 mmHg 46%
    14:00 +27°C° 0 mm 3 mps 756 mmHg 48%
    15:00 +26°C° 0 mm 3 mps 756 mmHg 50%
    16:00 +26°C° 0 mm 4 mps 755 mmHg 52%
    17:00 +25°C° 0 mm 3 mps 756 mmHg 57%
    18:00 +25°C° 0 mm 3 mps 757 mmHg 62%
    19:00 +24°C° 0 mm 3 mps 757 mmHg 67%
    20:00 +24°C° 0 mm 3 mps 757 mmHg 69%
    21:00 +22°C° 0 mm 3 mps 758 mmHg 70%
    22:00 +22°C° 0 mm 3 mps 758 mmHg 71%
    23:00 +22°C° 0 mm 3 mps 758 mmHg 71%

    20 January, Saturday

    Time Temperature Precipitation Wind Pressure Humidity
    00:00 +21°C° 0 mm 3 mps 758 mmHg 71%
    01:00 +21°C° 0 mm 3 mps 757 mmHg 71%
    02:00 +21°C° 0 mm 2 mps 757 mmHg 72%
    03:00 +20°C° 0 mm 2 mps 757 mmHg 72%
    04:00 +20°C° 0 mm 2 mps 757 mmHg 73%
    05:00 +20°C° 0 mm 2 mps 757 mmHg 74%
    06:00 +19°C° 0 mm 2 mps 757 mmHg 75%
    07:00 +20°C° 0 mm 1 mps 758 mmHg 76%
    08:00 +22°C° 0 mm 1 mps 758 mmHg 67%
    09:00 +24°C° 0 mm 1 mps 758 mmHg 58%
    10:00 +25°C° 0 mm 1 mps 758 mmHg 49%
    11:00 +26°C° 0 mm 1 mps 758 mmHg 44%
    12:00 +27°C° 0 mm 1 mps 757 mmHg 40%
    13:00 +28°C° 0 mm 2 mps 757 mmHg 35%
    14:00 +28°C° 0 mm 2 mps 756 mmHg 37%
    15:00 +28°C° 0 mm 2 mps 756 mmHg 39%
    16:00 +27°C° 0 mm 2 mps 755 mmHg 41%
    17:00 +26°C° 0 mm 2 mps 756 mmHg 46%
    18:00 +26°C° 0 mm 2 mps 756 mmHg 51%
    19:00 +25°C° 0 mm 1 mps 756 mmHg 56%
    20:00 +24°C° 0 mm 1 mps 756 mmHg 58%
    21:00 +24°C° 0 mm 1 mps 756 mmHg 59%
    22:00 +23°C° 0 mm 1 mps 757 mmHg 61%
    23:00 +23°C° 0 mm 1 mps 756 mmHg 60%

    21 January, Sunday

    Time Temperature Precipitation Wind Pressure Humidity
    00:00 +23°C° 0 mm 1 mps 756 mmHg 59%
    01:00 +22°C° 0 mm 1 mps 755 mmHg 58%
    02:00 +22°C° 0 mm 1 mps 755 mmHg 57%
    03:00 +22°C° 0 mm 1 mps 755 mmHg 57%
    04:00 +21°C° 0 mm 1 mps 754 mmHg 56%
    05:00 +21°C° 0 mm 1 mps 755 mmHg 57%
    06:00 +21°C° 0 mm 1 mps 755 mmHg 57%
    07:00 +21°C° 0 mm 1 mps 755 mmHg 58%
    08:00 +23°C° 0 mm 1 mps 755 mmHg 51%
    09:00 +24°C° 0 mm 1 mps 756 mmHg 43%
    10:00 +26°C° 0 mm 1 mps 756 mmHg 36%
    11:00 +27°C° 0 mm 2 mps 755 mmHg 36%
    12:00 +28°C° 0 mm 4 mps 754 mmHg 35%
    13:00 +28°C° 0 mm 5 mps 753 mmHg 35%
    14:00 +27°C° 0 mm 5 mps 753 mmHg 41%
    15:00 +26°C° 0 mm 6 mps 753 mmHg 48%
    16:00 +26°C° 0 mm 6 mps 752 mmHg 55%
    17:00 +24°C° 0 mm 6 mps 753 mmHg 55%
    18:00 +23°C° 0 mm 5 mps 753 mmHg 56%
    19:00 +22°C° 0 mm 5 mps 753 mmHg 57%
    20:00 +22°C° 0 mm 6 mps 753 mmHg 55%
    21:00 +22°C° 0 mm 7 mps 753 mmHg 53%
    22:00 +22°C° 0 mm 8 mps 754 mmHg 51%
    23:00 +21°C° 0 mm 9 mps 753 mmHg 50%
    Show more